N345Y KSYR-

Flight info

Callsign N345Y
Flight time N/A
Altitude VFR/025
Route
Aircraft C172/L-VGD/C

Departure

Time 2026-04-29 18:36
Airport Syracuse Hancock International Airport (KSYR)

Arrival

Time N/A
Airport -
Time Latitude Longitude Altitude Speed Heading
2026-04-29 18:32 43.11095 -76.12277 420 ft 0 kts 268°
2026-04-29 18:34 43.11095 -76.12279 420 ft 3 kts 266°
2026-04-29 18:34 43.11057 -76.12364 418 ft 21 kts 252°
2026-04-29 18:34 43.10944 -76.12573 427 ft 22 kts 250°
2026-04-29 18:34 43.10913 -76.12627 427 ft 0 kts 185°
2026-04-29 18:35 43.10829 -76.12495 417 ft 46 kts 99°
2026-04-29 18:35 43.10848 -76.11847 421 ft 87 kts 88°
2026-04-29 18:36 43.10897 -76.11000 648 ft 88 kts 88°
2026-04-29 18:36 43.10979 -76.10181 888 ft 87 kts 88°
2026-04-29 18:36 43.10966 -76.09349 1135 ft 86 kts 98°
2026-04-29 18:36 43.10888 -76.08581 1480 ft 81 kts 108°
2026-04-29 18:37 43.10755 -76.07825 1760 ft 81 kts 112°
2026-04-29 18:37 43.10667 -76.07057 2003 ft 85 kts 98°
2026-04-29 18:37 43.10688 -76.06237 2211 ft 88 kts 91°
2026-04-29 18:37 43.10820 -76.05412 2435 ft 88 kts 81°
2026-04-29 18:38 43.11027 -76.04537 2494 ft 108 kts 79°
2026-04-29 18:38 43.11268 -76.03535 2606 ft 114 kts 79°
2026-04-29 18:38 43.11502 -76.02448 2594 ft 126 kts 81°
2026-04-29 18:38 43.11708 -76.01236 2527 ft 135 kts 84°
2026-04-29 18:39 43.12029 -76.00021 2511 ft 136 kts 67°
2026-04-29 18:39 43.12453 -75.98875 2500 ft 135 kts 68°
2026-04-29 18:39 43.12871 -75.97735 2510 ft 133 kts 69°
2026-04-29 18:39 43.13239 -75.96583 2492 ft 131 kts 73°
2026-04-29 18:40 43.13576 -75.95429 2479 ft 130 kts 74°
2026-04-29 18:40 43.13916 -75.94270 2464 ft 131 kts 74°
2026-04-29 18:40 43.14181 -75.93079 2418 ft 132 kts 82°
2026-04-29 18:40 43.14400 -75.91858 2381 ft 132 kts 80°
2026-04-29 18:41 43.15204 -75.88262 2354 ft 133 kts 77°
2026-04-29 18:41 43.15487 -75.87065 2421 ft 128 kts 77°
2026-04-29 18:42 43.15738 -75.85910 2454 ft 128 kts 80°
2026-04-29 18:42 43.15985 -75.84730 2497 ft 128 kts 80°
2026-04-29 18:42 43.16195 -75.83536 2483 ft 129 kts 87°
2026-04-29 18:42 43.16314 -75.82334 2511 ft 129 kts 88°
2026-04-29 18:43 43.16512 -75.81111 2470 ft 132 kts 83°
2026-04-29 18:43 43.16746 -75.79906 2425 ft 134 kts 80°
2026-04-29 18:43 43.16977 -75.78656 2444 ft 133 kts 82°
2026-04-29 18:43 43.17201 -75.77461 2461 ft 131 kts 83°
2026-04-29 18:44 43.17432 -75.76246 2388 ft 133 kts 82°
2026-04-29 18:44 43.17660 -75.75054 2407 ft 129 kts 83°
2026-04-29 18:44 43.17883 -75.73853 2388 ft 127 kts 81°
2026-04-29 18:44 43.18108 -75.72689 2425 ft 127 kts 83°
2026-04-29 18:45 43.18286 -75.71493 2415 ft 125 kts 88°
2026-04-29 18:45 43.18381 -75.70310 2413 ft 127 kts 92°
2026-04-29 18:45 43.18445 -75.69110 2442 ft 127 kts 94°
2026-04-29 18:45 43.18437 -75.67930 2497 ft 122 kts 101°
2026-04-29 18:46 43.18443 -75.66748 2461 ft 126 kts 92°
2026-04-29 18:46 43.18510 -75.65556 2416 ft 128 kts 85°
2026-04-29 18:46 43.18885 -75.64427 2457 ft 131 kts 64°
2026-04-29 18:46 43.19356 -75.63367 2468 ft 131 kts 65°
2026-04-29 18:47 43.19757 -75.62248 2447 ft 128 kts 79°
2026-04-29 18:47 43.19993 -75.61065 2353 ft 132 kts 81°
2026-04-29 18:47 43.20175 -75.59844 2326 ft 129 kts 86°
2026-04-29 18:47 43.20318 -75.58627 2322 ft 129 kts 88°
2026-04-29 18:48 43.20493 -75.57424 2346 ft 128 kts 81°
2026-04-29 18:48 43.20690 -75.56209 2308 ft 132 kts 89°
2026-04-29 18:48 43.20895 -75.55007 2325 ft 131 kts 68°
2026-04-29 18:48 43.21178 -75.54267 2283 ft 134 kts 68°
2026-04-29 18:49 43.21858 -75.52803 2173 ft 139 kts 64°
2026-04-29 18:49 43.22193 -75.52042 2146 ft 138 kts 64°
2026-04-29 18:49 43.22816 -75.50563 1878 ft 132 kts 67°
2026-04-29 18:49 43.23242 -75.49470 1748 ft 123 kts 69°
2026-04-29 18:50 43.23528 -75.48815 1637 ft 124 kts 60°
2026-04-29 18:50 43.24094 -75.47879 1385 ft 128 kts 52°
2026-04-29 18:50 43.24686 -75.46993 1272 ft 122 kts 56°
2026-04-29 18:50 43.25230 -75.46175 1278 ft 115 kts 42°
2026-04-29 18:51 43.25792 -75.45402 1194 ft 108 kts 73°
2026-04-29 18:51 43.25865 -75.44529 1035 ft 86 kts 111°
2026-04-29 18:51 43.25625 -75.43853 887 ft 71 kts 141°
2026-04-29 18:51 43.25312 -75.43436 808 ft 59 kts 145°
2026-04-29 18:52 43.25021 -75.43023 701 ft 62 kts 145°
2026-04-29 18:52 43.24727 -75.42604 603 ft 59 kts 141°
2026-04-29 18:52 43.24460 -75.42225 515 ft 47 kts 143°
2026-04-29 18:52 43.24273 -75.41963 508 ft 37 kts 137°
2026-04-29 18:53 43.24079 -75.41680 506 ft 45 kts 138°
2026-04-29 18:53 43.23930 -75.41537 505 ft 15 kts 184°
2026-04-29 18:53 43.23767 -75.41734 506 ft 30 kts 238°
2026-04-29 18:53 43.23719 -75.41722 506 ft 4 kts 341°
2026-04-29 18:54 43.23729 -75.41742 506 ft 3 kts 199°
2026-04-29 18:54 43.23734 -75.41738 506 ft 10 kts 284°